Weather Roundup
Issued by NWS Corpus Christi, TX

Home | Current Version | Previous Version | Text Only | Print | Product List | Glossary On
Versions: 1 2 3 4 5 6 7 8 9 10 11 12 13 14 15 16 17 18 19 20 21 22 23 24 25 26 27 28 29 30 31 32 33 34 35 36 37 38 39 40 41 42 43 44 45 46 47 48 49 50
000
ASUS44 KCRP 290010
HRRCRP

SOUTH TEXAS REGIONAL WEATHER ROUNDUP
NATIONAL WEATHER SERVICE CORPUS CHRISTI TX
700 PM CDT SAT MAY 28 2016


TXZ229>244-290100-
...CORPUS CHRISTI AREA OBSERVATIONS...

CITY           SKY/WX    TMP DP  RH WIND       PRES   REMARKS
CORPUS CHRISTI MOSUNNY   84  75  74 SE17      29.89S HX  92
NAS CORPUS CHR PTSUNNY   83  78  85 SE22      29.89S HX  93
ROCKPORT       MOSUNNY   83  74  74 SE16G24   29.90S
KINGSVILLE NAS MOSUNNY   84  77  79 SE18      29.87S HX  94
ALICE          PTSUNNY   85  74  69 SE20G29   29.87S HX  92
FALFURRIAS     MOSUNNY   87  74  64 E15G23    29.85S HX  95
$$

...VICTORIA AREA OBSERVATIONS...

CITY           SKY/WX    TMP DP  RH WIND       PRES   REMARKS
VICTORIA       MOSUNNY   84  73  69 SE16      29.92F HX  90
BEEVILLE       CLOUDY    84  76  78 SE12G22   29.90S HX  92
PLEASANTON     MOSUNNY   87  72  59 E13G20    29.87S HX  93
SAN ANTONIO    PTSUNNY   87  73  62 SE15      29.89F HX  94
$$

...LAREDO AREA OBSERVATIONS...

CITY           SKY/WX    TMP DP  RH WIND       PRES   REMARKS
LAREDO         MOSUNNY   93  73  52 E17G23    29.81F HX 102
COTULLA        MOSUNNY   94  71  47 SE20      29.81F HX 101
DEL RIO        PTSUNNY   90  69  50 E14       29.82R HX  94
MCALLEN        SUNNY     90  73  57 SE22      29.85R HX  98
HEBBRONVILLE   MOSUNNY   89  72  57 SE15G22   29.86S HX  96
$$

...OTHER TEXAS OBSERVATIONS...

CITY           SKY/WX    TMP DP  RH WIND       PRES   REMARKS
BROWNSVILLE    SUNNY     85  74  69 E17       29.86F HX  92
HOUSTON        MOSUNNY   83  72  69 SE13      29.94S
COL. STATION   SUNNY     86  73  65 SE15      29.93S HX  93
AUSTIN         MOSUNNY   87  71  58 SE12G18   29.90S HX  93
WACO           SUNNY     85  73  67 SE13      29.91S HX  91
FORT WORTH     PTSUNNY   86  74  67 SE14      29.92R HX  94
WICHITA FALLS  SUNNY     87  64  46 E8        29.91S
LUBBOCK        MOSUNNY   86  38  18 E13       29.96S
EL PASO        MOSUNNY   91   0   3 SW12      29.92S
$$

...MARINE OBSERVATIONS...

STATION/POSITION TIME  SKY/WX   TEMP    WIND        PRES    VSBY  WAVE   SWELL
                                AIR SEA DIR/SP/G                  HT/PER HT/PER
                 (UTC)          (F)     (DEG/KT/KT) (MB)    (MI)  (FT/S) (FT/S)
PORT ARANSAS     0000            81 83  120/ 16/ 18 1013.3F
BUOY 90 E PORT A 2350            81 81  120/ 10/ 12 1014.0S         5/ 7   3/ 7
BUOY 45 SE BAFFI 2350            81 82  120/ 14/ 16 1012.0F         7/ 8   5/ 8
BUOY 200 E PT IS 2350                                 N/A           4/ 7   2/ 7
BUOY 15 E GALVES 2350            81 84  110/  8/ 12 1015.0R         3/ 6   3/ 6
$$




USA.gov is the U.S. government's official web portal to all federal, state and local government web resources and services.